Content
SEND FEEDBACK

Daily
Averages
Monthly
Summary
United States of America

LOSTWOOD, NORTH DAKOTA


Home > North America > United States > North Dakota
Elevation: 2250 feet     Latitude: 48 33N     Longitude: 102 24W

WEATHER
 
SELECT A DAY
Number of Records: 80,324;   Date Range: 12/7/10 - 7/6/14
 
SHARE

PRINT THIS DATA

[ ← Previous Day ]
WEATHER ALMANAC - FEBRUARY 13, 2013
[ Next Day → ]
[ °C ]   °F
Weather ElementAverageHighLow
Temperature29.6 °F32 °F (10:35 am)24.8 °F (12:35 am)
Dewpoint29 °F32 °F (10:35 am)24.8 °F (12:35 am)
Humidity97.8 %100 % (12:35 am)93 % (12:55 am)
Barometer29.64 in29.73 in (11:15 pm)29.55 in (7:55 am)
Wind Speed11.8 mph23 mph (10:35 pm)
Wind Gust31.1 mph (10:15 pm)
Weather ElementAverage
Visibility8.6 mi
Wind DirectionWNW (278.7 °)

Weather ElementTotal
Precipitation3.20 in
Heating Degree Days36.6 (Base 65)
Averaged from 70 records on February 13, 2013
WEATHER CONDITIONS BREAKOUT
WIND DIRECTION BREAKOUT
WEATHER BY HOUR - FEBRUARY 13, 2013
[ °C ]   °F
Local TimeTemperatureDewpointHumidityBarometerVisibilityWind DirectionWind SpeedGust SpeedPrecipitationEventsConditions
12:35 AM24.8 °F24.8 °F100 %29.72 in10.0 miWest (280°)8.1 mphOvercast
12:55 AM26.6 °F24.8 °F93 %29.71 in10.0 miWest (280°)8.1 mphOvercast
1:15 AM26.6 °F24.8 °F93 %29.72 in10.0 miWest (270°)9.2 mphOvercast
1:35 AM26.6 °F24.8 °F93 %29.70 in10.0 miWest (260°)10.4 mphOvercast
1:55 AM28.4 °F26.6 °F93 %29.69 in10.0 miWSW (250°)13.8 mphOvercast
2:15 AM28.4 °F26.6 °F93 %29.68 in10.0 miWest (260°)9.2 mphOvercast
2:35 AM28.4 °F26.6 °F93 %29.67 in10.0 miWSW (250°)10.4 mphOvercast
2:55 AM28.4 °F26.6 °F93 %29.66 in10.0 miSW (230°)6.9 mphOvercast
3:15 AM28.4 °F26.6 °F93 %29.66 in10.0 miWSW (250°)6.9 mphMostly Cloudy
3:35 AM28.4 °F26.6 °F93 %29.65 in10.0 miWNW (290°)5.8 mphOvercast
3:55 AM28.4 °F26.6 °F93 %29.64 in10.0 miWSW (250°)6.9 mphOvercast
4:15 AM28.4 °F26.6 °F93 %29.63 in10.0 miWSW (250°)6.9 mphOvercast
4:35 AM28.4 °F26.6 °F93 %29.62 in10.0 miWSW (250°)8.1 mphOvercast
4:55 AM28.4 °F26.6 °F93 %29.61 in10.0 miWSW (250°)6.9 mphOvercast
5:15 AM28.4 °F26.6 °F93 %29.60 in10.0 miCalmOvercast
5:35 AM28.4 °F26.6 °F93 %29.60 in10.0 miSSW (210°)3.5 mphOvercast
5:55 AM28.4 °F28.4 °F100 %29.59 in9.0 miSW (220°)4.6 mph0.01 inSnowLight Snow
6:15 AM28.4 °F28.4 °F100 %29.58 in5.0 miSW (220°)3.5 mph0.03 inSnowLight Snow
6:35 AM28.4 °F28.4 °F100 %29.57 in2.5 miSSW (210°)6.9 mph0.09 inSnowLight Snow
6:55 AM28.4 °F28.4 °F100 %29.57 in1.8 miSSW (200°)4.6 mph0.29 inSnowLight Snow
7:15 AM28.4 °F28.4 °F100 %29.56 in1.5 miSSW (210°)5.8 mph0.13 inSnowLight Snow
7:35 AM28.4 °F28.4 °F100 %29.56 in2.0 miSW (220°)5.8 mph0.26 inSnowLight Snow
7:55 AM28.4 °F28.4 °F100 %29.55 in1.5 miSW (220°)5.8 mph0.32 inSnowLight Snow
8:35 AM28.4 °F28.4 °F100 %29.56 in1.2 miWest (260°)8.1 mph0.29 inSnowLight Snow
8:55 AM30.2 °F30.2 °F100 %29.56 in1.0 miWest (260°)8.1 mph0.88 inSnowLight Snow
9:15 AM30.2 °F30.2 °F100 %29.55 in9.0 miWest (270°)8.1 mph0.10 inSnowLight Snow
9:35 AM30.2 °F30.2 °F100 %29.55 in10.0 miWest (280°)13.8 mph0.13 inSnowLight Snow
9:55 AM30.2 °F30.2 °F100 %29.55 in10.0 miWNW (290°)11.5 mph0.13 inOvercast
10:15 AM30.2 °F30.2 °F100 %29.55 in10.0 miWNW (300°)17.3 mphOvercast
10:35 AM32.0 °F32.0 °F100 %29.56 in10.0 miWNW (300°)15.0 mphOvercast
10:55 AM32.0 °F32.0 °F100 %29.57 in10.0 miWNW (300°)15.0 mphOvercast
11:15 AM32.0 °F32.0 °F100 %29.57 in10.0 miWNW (300°)16.1 mphOvercast
11:35 AM32.0 °F32.0 °F100 %29.58 in10.0 miWNW (300°)13.8 mphOvercast
11:55 AM32.0 °F32.0 °F100 %29.58 in10.0 miWNW (300°)15.0 mph19.6 mphOvercast
12:15 PM32.0 °F32.0 °F100 %29.59 in10.0 miWNW (300°)15.0 mph19.6 mphOvercast
12:35 PM32.0 °F32.0 °F100 %29.59 in10.0 miWNW (300°)16.1 mphOvercast
12:55 PM32.0 °F32.0 °F100 %29.59 in10.0 miWNW (300°)16.1 mphOvercast
1:15 PM32.0 °F32.0 °F100 %29.60 in10.0 miNW (320°)13.8 mphOvercast
1:35 PM32.0 °F32.0 °F100 %29.61 in10.0 miNW (320°)17.3 mph20.7 mphOvercast
1:55 PM32.0 °F32.0 °F100 %29.62 in10.0 miNW (320°)19.6 mphOvercast
2:15 PM32.0 °F32.0 °F100 %29.62 in10.0 miNNW (330°)11.5 mphOvercast
2:35 PM32.0 °F30.2 °F93 %29.63 in10.0 miNW (320°)13.8 mphOvercast
2:55 PM32.0 °F30.2 °F93 %29.63 in10.0 miNNW (330°)15.0 mph19.6 mphOvercast
3:15 PM30.2 °F30.2 °F100 %29.64 in10.0 miNNW (330°)15.0 mph20.7 mphOvercast
3:35 PM30.2 °F30.2 °F100 %29.65 in10.0 miNNW (340°)10.4 mphOvercast
3:55 PM30.2 °F30.2 °F100 %29.66 in10.0 miNW (320°)8.1 mphRainLight Rain
4:15 PM30.2 °F30.2 °F100 %29.67 in1.8 miNW (320°)8.1 mph0.06 inSnowLight Snow
4:35 PM30.2 °F30.2 °F100 %29.67 in5.0 miNW (310°)8.1 mph0.13 inSnowLight Snow
4:55 PM30.2 °F30.2 °F100 %29.68 in10.0 miNW (310°)8.1 mph0.13 inSnowLight Snow
5:15 PM30.2 °F30.2 °F100 %29.68 in10.0 miWNW (300°)10.4 mphOvercast
5:35 PM30.2 °F30.2 °F100 %29.69 in5.0 miWNW (290°)16.1 mph23.0 mph0.01 inSnowLight Snow
5:55 PM28.4 °F28.4 °F100 %29.70 in5.0 miWNW (300°)13.8 mph0.04 inSnowLight Snow
6:15 PM28.4 °F28.4 °F100 %29.70 in10.0 miWNW (300°)16.1 mphRainLight Rain
6:35 PM28.4 °F28.4 °F100 %29.70 in10.0 miNW (310°)13.8 mph0.01 inSnowLight Snow
6:55 PM28.4 °F28.4 °F100 %29.71 in1.8 miNW (310°)12.7 mph19.6 mph0.14 inSnowLight Snow
7:15 PM28.4 °F28.4 °F100 %29.72 in10.0 miWNW (300°)11.5 mphOvercast
7:35 PM30.2 °F30.2 °F100 %29.72 in10.0 miWNW (300°)12.7 mphOvercast
7:55 PM30.2 °F30.2 °F100 %29.71 in10.0 miWNW (300°)10.4 mphSnowLight Snow
8:15 PM32.0 °F32.0 °F100 %29.71 in10.0 miNW (310°)11.5 mphOvercast
8:35 PM32.0 °F32.0 °F100 %29.72 in10.0 miWNW (300°)11.5 mphOvercast
8:55 PM32.0 °F32.0 °F100 %29.71 in10.0 miWNW (300°)15.0 mphOvercast
9:15 PM32.0 °F32.0 °F100 %29.71 in10.0 miWNW (300°)13.8 mph20.7 mphOvercast
9:35 PM32.0 °F32.0 °F100 %29.71 in10.0 miWest (280°)15.0 mphOvercast
9:55 PM32.0 °F32.0 °F100 %29.71 in10.0 miWNW (290°)21.9 mph28.8 mphRainLight Rain
10:15 PM30.2 °F28.4 °F93 %29.72 in7.0 miWNW (290°)20.7 mph31.1 mphSnowLight Snow
10:35 PM28.4 °F26.6 °F93 %29.72 in10.0 miWNW (300°)23.0 mph27.6 mph0.01 inSnowLight Snow
10:55 PM26.6 °F24.8 °F93 %29.72 in10.0 miWNW (300°)21.9 mph28.8 mph0.01 inSnowLight Snow
11:15 PM26.6 °F24.8 °F93 %29.73 in10.0 miWNW (290°)17.3 mph23.0 mphOvercast
11:35 PM26.6 °F24.8 °F93 %29.73 in10.0 miWNW (290°)20.7 mph26.5 mphOvercast
11:55 PM26.6 °F26.6 °F100 %29.73 in10.0 miWNW (290°)20.7 mph27.6 mphOvercast
Hourly data recorded from K08D, located miles away from Lostwood, North Dakota







STORIES FROM OUR PARTNERS